Wind_Speed
26 26 25 24 23 22 22 21 21 20 19 19 18 17 15 13 12 12 11 11 11 11 12 13 14 14 14 14 13 13 14 16 17 18 19 21 22 23 24 25 26 27 27 27 28 29 30 31 32 33 32 27 20 12 5 2 9 13 13 13 13 12 12 11 9 9 10 11 12 13 12 12 12 12 12 11 11 10 11 11 12 13 14 14 14 15 15 15
29 29 28 27 26 26 25 24 23 22 22 21 21 20 19 17 15 14 13 13 13 13 12 13 13 14 15 15 14 13 12 13 15 17 17 18 20 21 22 23 24 25 26 26 27 28 29 30 31 32 33 31 25 18 10 4 4 11 14 13 11 10 10 9 9 9 10 10 11 11 10 10 10 10 10 9 9 9 10 11 11 11 12 12 11 11 11 11
32 32 31 30 30 29 28 28 27 26 25 24 23 22 22 21 19 17 16 15 15 15 14 14 14 14 15 16 15 14 12 11 13 15 16 16 18 19 20 21 22 24 25 25 26 26 27 28 29 31 33 33 29 23 15 9 2 6 12 13 11 9 9 9 8 9 10 10 10 9 8 7 6 7 7 7 7 7 8 9 8 7 6 6 5 4 4 4
35 34 34 33 33 32 31 31 30 29 28 27 26 25 24 23 22 21 19 18 17 17 17 16 15 16 16 16 17 16 14 11 11 12 14 15 15 17 19 19 20 22 23 24 24 25 26 27 28 29 31 32 32 27 20 12 6 2 7 12 12 10 9 8 8 10 11 10 9 8 7 6 6 6 6 6 6 7 7 7 6 5 4 3 3 3 2 1
36 36 36 35 35 35 34 34 33 32 32 31 30 29 28 27 26 25 23 21 20 19 19 18 17 17 17 17 18 17 16 13 11 11 12 13 14 15 17 18 19 20 21 22 23 24 25 25 26 28 29 31 32 31 25 16 9 4 5 9 11 11 9 8 9 11 11 10 9 8 7 7 7 7 8 8 9 9 9 8 8 8 7 6 5 4 3 3
37 37 37 37 37 36 36 36 36 35 34 34 33 32 31 30 29 28 27 26 24 23 22 21 20 19 19 18 19 19 18 16 13 11 11 11 12 13 14 16 17 18 19 21 22 23 23 24 25 26 27 29 31 32 28 21 12 6 6 10 10 10 9 9 11 11 12 11 10 9 9 9 9 10 10 10 10 10 9 8 8 8 7 6 4 3 3 3
38 38 38 38 37 37 37 37 37 37 36 36 35 35 35 34 33 32 31 30 28 27 26 25 24 23 22 20 20 20 19 19 15 13 11 10 11 12 12 14 16 17 18 19 20 21 22 23 24 24 25 27 29 31 30 25 17 10 9 11 9 8 9 11 13 13 13 12 11 10 10 10 10 10 10 10 10 9 8 7 7 7 6 5 4 3 2 2
41 40 40 39 39 38 38 38 37 37 37 37 37 37 37 36 36 35 34 33 32 30 29 29 28 26 26 24 23 22 21 21 18 16 13 10 11 11 11 12 14 16 16 17 19 20 21 21 22 23 23 24 26 28 29 27 22 14 11 12 10 8 9 11 13 14 15 13 11 10 10 10 9 9 9 9 8 8 8 6 6 6 6 5 4 3 2 1
45 44 43 42 42 41 40 39 38 38 37 37 38 38 38 38 38 37 37 37 35 33 32 32 31 30 29 28 26 24 23 23 22 19 15 12 11 11 11 11 12 14 15 16 17 18 19 20 20 21 22 22 23 25 27 27 25 19 13 11 10 8 9 11 12 14 15 14 12 11 10 10 9 8 8 8 7 6 6 5 5 5 5 5 4 3 2 2
49 48 47 47 46 44 43 42 41 40 39 38 38 39 39 38 38 38 39 39 38 36 35 34 34 33 33 31 30 27 25 26 25 23 18 14 13 12 12 11 11 12 13 14 15 17 18 18 19 19 20 20 21 22 23 25 25 22 16 12 9 7 8 10 11 12 14 14 13 11 9 9 7 6 5 5 5 5 4 4 4 4 4 4 4 4 4 3
53 53 52 51 50 49 48 47 45 44 42 41 41 41 40 39 39 39 39 39 39 38 37 36 36 36 35 35 33 28 28 29 27 25 21 18 16 13 13 13 11 11 13 12 13 15 16 17 17 18 18 19 19 19 20 22 23 23 20 15 10 7 7 9 11 13 13 13 12 10 8 7 4 3 2 3 3 3 2 2 2 2 3 5 6 7 6 5
56 56 56 55 55 54 52 51 50 48 46 45 44 44 43 42 40 40 40 40 39 39 38 37 37 37 38 38 34 30 33 33 29 27 24 22 20 16 15 15 13 12 12 12 12 13 14 15 16 16 17 17 17 17 18 19 21 22 20 18 13 10 8 9 12 14 14 13 11 9 8 6 2 1 1 2 2 2 1 0 1 2 4 7 9 9 9 8
59 59 59 58 58 57 57 56 54 53 51 49 48 48 48 46 44 42 42 41 40 40 39 38 38 38 39 39 34 33 38 36 31 29 27 25 24 21 18 16 16 14 13 13 12 12 13 13 14 14 15 15 16 16 16 16 18 19 19 18 16 13 12 12 13 15 14 12 10 9 8 5 3 2 2 3 3 3 2 1 1 3 5 9 10 11 12 12
62 62 62 61 61 60 60 59 58 57 55 53 53 52 52 50 48 46 45 44 43 41 40 40 40 39 40 38 34 37 41 36 31 31 31 29 28 25 22 19 18 17 15 14 14 13 12 12 12 13 13 13 14 14 13 13 14 16 16 16 15 15 14 15 15 15 14 12 10 9 7 4 3 4 5 6 7 6 3 2 2 3 6 10 11 12 14 16
65 65 65 64 64 64 63 63 62 60 59 57 57 56 56 54 52 50 48 47 47 45 43 42 42 41 41 38 35 38 41 36 31 32 34 32 30 29 27 23 21 20 18 16 16 15 13 12 12 11 11 11 12 12 11 11 11 12 13 13 13 13 15 16 17 16 14 12 10 8 6 3 3 4 5 7 8 6 3 2 2 4 8 11 12 14 15 16
68 68 68 67 67 67 66 66 65 64 62 61 61 60 60 59 57 54 53 51 50 49 47 46 44 44 43 39 37 40 41 37 32 33 35 33 32 31 30 27 24 23 22 20 19 17 15 14 13 11 10 9 10 10 10 9 9 9 10 11 10 10 13 16 18 15 13 11 9 7 4 3 6 8 8 9 8 7 5 4 6 7 10 13 14 15 14 13
70 71 71 70 70 70 69 69 69 67 66 65 64 64 63 63 61 59 58 55 54 52 51 50 48 47 46 42 40 41 41 38 35 35 35 34 33 32 31 29 27 26 25 24 23 21 19 17 15 13 11 9 9 9 9 8 7 6 6 7 8 7 10 14 16 14 11 9 8 6 5 7 10 12 13 13 12 10 8 8 10 11 12 13 15 14 12 11
71 72 73 73 73 72 72 72 72 71 69 68 67 67 66 66 65 64 62 61 59 57 55 53 52 51 50 46 43 43 43 40 37 37 37 36 34 33 31 30 29 28 27 27 26 24 22 20 19 17 14 10 9 10 9 8 7 6 4 4 5 6 6 11 14 13 10 9 8 8 7 9 10 11 12 13 12 12 10 10 11 13 13 12 12 11 10 9
69 70 72 74 74 74 74 74 74 73 72 71 71 70 69 69 68 67 66 65 63 61 59 58 56 55 54 51 47 45 46 43 40 39 39 38 35 34 32 31 31 30 29 30 30 28 26 24 23 21 17 13 11 11 11 9 7 6 5 2 2 4 4 6 10 10 9 9 8 8 7 7 7 7 9 9 10 11 11 11 11 12 12 11 9 7 7 7
64 66 68 71 72 73 74 75 76 76 75 74 73 73 73 72 71 71 69 68 67 65 63 61 60 60 58 55 51 49 49 47 43 41 41 41 38 36 34 32 32 31 31 33 33 30 28 27 28 25 20 17 13 13 13 11 9 8 7 5 1 1 2 3 5 7 7 7 6 5 5 5 5 5 7 7 8 9 10 10 11 11 10 10 8 7 7 7
58 61 64 66 68 69 71 73 75 76 76 76 76 75 75 75 74 74 73 72 70 68 66 64 63 64 62 58 55 54 54 52 48 45 44 43 41 39 37 35 34 33 34 35 34 31 30 32 33 28 23 20 16 16 17 14 12 11 9 8 5 2 1 0 2 3 5 6 6 5 5 5 5 6 6 6 6 7 7 8 9 9 9 8 8 8 7 7
49 53 58 61 63 64 66 68 71 72 74 76 77 77 77 77 76 76 76 76 74 71 69 67 67 68 65 61 59 57 58 58 54 50 47 46 44 42 41 38 36 35 36 36 34 33 33 37 36 29 25 22 20 19 20 17 15 14 12 10 8 6 4 3 3 3 4 5 6 6 6 6 6 5 5 5 5 5 5 6 7 8 8 7 6 6 6 6
42 45 49 53 58 60 62 64 66 67 69 72 74 76 77 78 78 77 77 79 79 74 71 71 71 71 68 64 62 61 63 63 58 54 51 50 47 46 44 42 40 39 37 36 35 35 37 41 38 30 27 25 24 23 22 22 19 17 16 13 11 9 7 6 6 6 5 6 6 6 7 6 6 5 4 4 5 5 5 5 5 6 6 6 5 4 4 4
42 43 44 46 49 53 56 60 62 63 65 67 70 72 74 76 77 78 78 80 83 78 73 73 74 74 71 68 65 64 65 66 63 58 56 54 51 49 47 46 43 42 40 39 38 37 40 44 38 30 29 28 27 26 25 26 23 21 20 17 15 12 10 10 9 8 8 7 7 7 8 8 7 6 6 6 5 5 5 4 4 4 4 4 4 3 2 2
46 46 46 45 45 46 48 52 56 59 61 64 66 68 70 72 73 75 76 79 84 83 77 75 76 77 75 72 68 67 67 69 68 64 61 58 55 53 52 49 46 45 44 43 41 39 42 45 38 31 31 30 30 30 29 29 28 25 24 22 19 15 13 13 12 10 10 9 9 9 9 9 8 7 6 6 6 5 5 4 3 3 2 2 2 2 1 1
51 51 51 50 48 46 44 45 49 52 56 60 62 65 67 68 69 71 73 75 81 85 81 77 77 78 78 75 72 70 70 72 71 67 64 63 60 57 55 52 49 48 48 46 45 43 45 47 40 32 32 32 32 33 33 32 31 30 28 25 22 18 16 16 15 14 12 9 10 11 11 10 9 9 8 7 7 6 6 5 4 3 2 2 2 2 2 3
54 55 55 54 53 51 47 45 44 45 49 54 59 62 64 65 66 68 69 71 76 82 83 80 79 79 79 79 76 73 73 75 74 69 67 67 65 62 59 56 54 52 51 50 48 45 47 50 44 36 34 34 34 35 37 36 35 35 32 27 24 21 20 19 18 16 13 11 13 14 13 12 11 10 10 9 9 8 7 6 5 4 4 4 3 3 3 3
56 56 57 58 56 55 53 48 45 44 45 48 53 57 60 62 64 65 67 68 72 78 80 80 80 79 80 81 80 77 76 77 77 73 71 70 68 66 63 60 59 57 55 53 51 50 51 53 49 41 38 36 36 39 40 38 38 39 34 28 26 24 22 21 19 19 16 13 16 17 16 15 13 13 13 12 11 10 8 8 6 6 6 6 5 5 5 5
57 57 58 60 59 59 58 53 48 47 47 47 48 52 56 59 60 63 65 66 70 75 77 77 77 78 80 82 82 80 78 79 79 77 73 71 70 69 67 65 64 62 58 55 55 55 56 57 53 46 41 39 40 42 41 39 40 40 35 29 28 26 24 23 22 22 19 16 19 21 19 17 15 14 16 15 13 12 11 10 9 9 9 8 7 7 7 9
58 57 58 60 61 61 61 58 53 52 51 50 49 48 51 54 56 59 60 62 68 73 74 74 74 75 78 81 82 82 81 80 80 79 76 74 73 73 71 70 68 65 61 58 58 59 59 59 56 49 44 43 43 44 42 40 41 39 34 31 29 27 26 25 24 24 21 20 24 25 22 19 17 17 19 17 13 14 15 13 12 12 12 11 10 8 10 12
60 59 58 60 61 62 63 62 59 57 54 52 53 50 48 49 52 54 54 56 64 70 72 72 71 71 73 77 80 82 83 82 82 81 79 77 76 75 74 72 70 68 64 61 61 62 61 61 58 52 49 48 46 46 44 42 42 39 35 34 32 30 28 26 26 25 22 26 30 28 23 22 22 22 21 18 14 15 17 16 14 15 15 14 12 11 13 16
63 61 60 61 62 64 64 64 63 62 58 56 55 53 50 46 46 47 49 54 59 65 70 70 69 69 70 73 77 80 82 84 84 83 81 80 79 78 77 75 73 71 68 65 65 65 64 63 61 57 54 52 49 48 47 44 43 42 39 37 35 33 31 29 28 26 26 32 35 30 24 26 29 25 21 20 19 18 19 17 16 18 18 17 15 14 16 19
66 64 63 63 64 65 66 66 66 65 63 61 57 55 52 45 42 45 49 54 57 61 67 69 68 68 69 70 73 76 80 83 85 86 84 82 81 80 80 78 76 74 71 69 69 68 67 67 65 61 58 55 52 50 49 46 45 45 43 41 40 37 35 33 32 31 31 36 40 33 27 30 32 27 23 23 21 19 21 20 20 22 22 20 19 18 19 21
69 67 66 65 65 67 68 68 68 67 66 65 61 56 51 47 47 51 53 55 57 61 65 66 67 68 69 70 71 73 76 80 84 86 86 84 83 82 82 80 78 76 74 73 72 71 70 69 67 64 61 58 56 53 51 50 50 50 48 47 44 40 38 37 37 36 36 40 42 35 29 33 34 28 26 25 23 24 26 24 24 25 24 23 23 22 22 23
73 71 69 68 67 68 70 70 69 69 68 67 65 59 52 52 56 57 58 57 56 60 63 63 65 67 68 70 70 71 74 76 80 84 86 86 85 84 83 82 81 80 78 76 74 73 72 70 69 68 66 63 62 59 57 56 55 54 52 49 45 41 41 41 40 39 40 41 42 36 32 36 36 30 29 29 29 29 29 27 27 27 27 27 27 25 24 25
75 74 72 72 71 70 71 72 72 71 69 69 67 61 57 59 61 60 61 59 55 58 60 61 63 65 67 69 69 71 73 74 76 80 84 86 86 86 86 84 83 82 80 79 77 76 74 72 72 73 70 68 67 65 63 61 58 57 55 50 45 45 46 45 42 42 41 41 40 38 37 39 38 34 34 34 33 32 31 30 30 29 30 31 31 30 28 28
76 76 75 74 74 73 73 73 73 73 72 70 67 64 63 64 63 62 63 61 57 57 59 59 60 61 64 67 69 71 72 74 75 76 80 83 86 87 88 87 85 84 83 82 80 79 77 76 76 76 74 71 71 70 68 66 63 61 57 52 51 52 51 48 45 44 42 40 40 41 40 41 41 38 37 37 37 35 33 33 32 32 33 34 34 33 32 32
78 78 77 76 77 77 76 75 75 75 74 71 68 66 66 66 66 66 65 64 61 59 57 58 58 58 61 65 68 70 71 73 74 75 76 79 83 87 89 89 88 87 86 85 83 81 80 78 78 78 77 76 75 74 71 68 65 63 59 57 58 56 52 50 47 45 44 42 42 43 43 43 43 43 42 40 40 38 36 34 34 34 36 37 37 36 35 35
81 81 80 79 79 79 78 77 76 76 75 72 69 68 68 68 70 70 67 65 64 61 58 57 57 57 58 61 65 68 69 72 74 75 75 76 80 85 88 90 90 90 89 87 85 84 82 81 80 81 80 80 79 78 73 68 66 65 63 62 62 59 54 52 49 46 46 44 44 45 45 44 45 47 46 44 42 40 37 36 37 37 38 39 39 38 38 38
84 84 83 82 82 82 81 79 78 77 76 73 71 71 70 70 72 72 70 68 66 64 61 59 58 56 56 58 62 65 67 69 72 75 75 75 77 81 86 90 92 92 92 90 88 87 85 83 82 83 83 82 80 77 72 69 69 69 67 66 65 62 57 54 52 49 47 46 45 45 44 44 46 49 49 49 46 42 40 40 40 41 41 42 42 41 41 40
87 87 87 86 85 85 83 81 79 78 77 75 74 73 73 72 73 74 73 71 68 67 65 62 60 57 55 56 59 62 64 66 69 73 75 76 76 79 84 88 91 94 94 92 90 88 86 84 84 85 86 83 79 76 74 74 75 74 72 70 67 65 62 59 57 53 50 48 47 47 46 46 49 50 51 52 50 46 43 43 44 44 44 45 45 44 44 43
91 91 90 89 88 88 86 84 81 80 78 76 76 76 76 75 75 75 75 73 71 70 68 65 63 60 57 57 58 61 62 63 66 69 73 76 77 78 82 86 90 92 94 93 92 90 89 88 87 87 85 82 80 79 79 80 80 78 76 73 70 69 66 62 58 56 54 52 50 49 47 47 50 52 52 54 53 50 47 46 46 46 46 47 48 47 47 46
94 94 94 92 91 91 89 86 85 82 79 78 78 78 77 77 76 76 77 75 73 72 70 68 66 64 61 60 59 60 62 62 63 66 70 74 77 78 81 83 87 89 92 93 93 93 93 90 88 87 85 84 84 85 84 84 83 80 77 73 71 68 66 63 61 59 58 56 54 52 49 46 49 53 54 54 55 54 51 49 49 48 48 49 50 50 50 49
97 97 96 95 94 93 92 89 87 85 82 80 79 79 78 78 78 78 78 77 76 75 73 71 69 67 65 64 61 60 62 62 61 63 67 71 75 79 81 82 84 87 90 93 94 95 95 92 90 89 88 87 88 88 86 84 82 79 76 73 70 68 67 67 65 63 61 59 57 54 49 47 50 54 55 56 57 57 55 52 50 50 51 51 52 53 53 52
100 99 99 97 96 96 94 92 90 88 85 82 81 80 80 80 80 80 80 80 78 77 75 73 72 70 69 68 64 61 60 60 60 61 63 67 73 78 81 81 82 85 88 91 94 96 96 94 92 91 90 88 87 85 83 81 80 78 76 75 73 71 71 71 69 67 63 60 58 55 50 49 53 56 57 57 58 59 58 55 53 53 53 53 53 54 54 54
103 103 102 100 99 98 97 95 93 91 88 85 83 82 82 81 81 82 82 81 80 79 76 75 74 72 71 70 66 62 59 58 59 59 59 63 70 76 80 81 83 85 86 88 91 94 95 95 94 92 90 88 86 85 83 83 83 81 79 78 77 76 74 73 72 69 63 61 60 57 53 54 56 59 59 59 59 60 60 58 56 56 56 54 54 53 53 54
106 106 105 104 102 101 99 98 96 93 91 88 85 83 83 82 83 83 84 82 82 81 78 77 76 74 73 72 69 65 61 58 58 58 58 61 67 74 79 81 83 85 85 86 89 92 94 95 94 93 91 89 88 88 88 88 87 85 83 81 81 79 78 76 75 69 64 63 62 58 57 58 59 61 61 60 60 61 61 60 58 57 56 55 54 54 54 54
109 109 108 108 106 103 102 101 99 96 93 90 87 85 84 84 84 85 85 84 83 82 80 78 77 75 74 74 72 67 63 59 57 57 57 59 64 71 77 80 83 84 84 85 86 88 91 93 94 94 92 91 91 91 91 91 90 88 86 85 84 82 81 79 76 72 69 68 64 60 61 62 61 61 62 61 61 61 61 61 60 58 57 55 55 56 55 55
112 112 111 111 109 107 105 103 102 99 96 93 89 87 86 86 85 85 86 85 84 82 81 79 79 78 76 75 72 68 64 60 57 57 57 59 63 69 74 78 81 83 84 84 85 86 89 91 94 95 94 93 93 94 94 93 92 90 88 86 86 84 82 80 78 75 73 72 68 65 65 64 62 61 60 61 62 62 62 61 60 59 58 57 57 57 57 57
114 113 113 112 111 110 107 105 103 101 98 95 91 88 88 87 86 86 86 86 85 84 83 82 81 80 77 75 72 69 67 65 61 60 60 60 63 66 70 76 80 82 84 85 84 85 86 89 92 94 95 94 95 96 97 96 94 92 89 88 87 85 83 81 79 77 76 73 69 67 65 62 61 61 61 62 64 63 63 62 61 60 59 58 59 60 59 60
111 111 112 111 111 111 109 106 103 101 100 97 92 90 89 89 88 88 87 87 86 86 85 84 83 81 78 76 73 70 69 67 64 63 62 61 61 63 67 73 78 80 82 83 83 83 85 87 89 92 94 95 96 98 98 97 96 94 91 88 87 86 84 81 79 77 75 72 69 67 64 60 60 62 63 64 65 64 63 63 62 61 60 59 61 61 61 63
103 105 106 107 108 109 108 106 103 101 100 98 95 91 90 90 90 89 89 88 88 87 87 86 85 83 80 77 74 71 70 68 67 66 64 61 60 61 64 69 74 78 80 81 81 83 85 86 87 89 92 94 97 98 98 98 98 95 90 87 86 85 83 82 80 78 75 73 71 68 63 60 62 64 65 66 66 65 64 64 63 62 61 61 62 63 64 65
Wind_Direction
248 249 250 252 254 256 259 262 265 268 270 271 271 270 270 272 279 288 295 301 308 315 321 326 330 332 335 341 348 358 7 9 10 14 20 22 23 25 26 27 28 29 31 32 33 32 31 30 30 29 27 27 27 24 16 221 205 204 210 210 194 188 192 194 199 213 221 225 228 230 229 231 234 237 239 240 243 247 251 254 256 258 260 261 264 266 267 269
250 250 250 251 251 253 254 256 258 261 265 268 270 270 270 269 269 273 280 288 294 299 305 312 317 321 324 327 333 341 354 3 5 6 12 18 18 18 21 24 25 25 27 29 31 32 31 29 28 29 27 25 26 27 26 25 199 200 205 207 197 192 193 192 198 209 215 217 223 224 221 223 227 232 235 238 245 251 253 255 255 257 260 262 264 266 269 271
252 252 252 252 252 253 253 254 255 256 258 261 264 267 269 270 269 268 271 275 281 287 291 297 302 308 312 315 319 325 335 349 357 360 3 10 14 14 14 18 21 21 23 25 28 30 31 29 27 28 28 26 25 26 29 35 63 190 198 197 194 195 196 193 195 202 202 200 204 206 203 205 212 224 231 233 238 244 244 245 243 243 250 254 255 259 271 277
254 254 254 254 254 254 255 255 255 255 256 256 258 260 263 266 267 267 267 269 272 277 281 285 289 294 300 304 308 312 318 330 342 350 355 1 7 10 8 10 16 18 18 20 24 27 29 30 28 27 27 27 26 27 30 37 53 133 189 185 186 194 195 191 195 194 181 175 179 177 172 176 188 198 208 207 204 207 209 209 199 176 149 140 133 115 96 83
257 256 256 256 256 256 256 256 256 257 257 257 257 257 258 260 262 264 264 265 266 269 272 276 279 283 288 292 296 300 305 311 322 334 344 351 356 4 4 2 8 13 14 15 18 23 27 29 29 27 27 27 27 28 31 36 53 87 158 161 171 186 184 186 199 186 162 155 160 161 162 167 175 179 183 183 180 182 181 176 164 144 124 113 104 91 80 69
259 259 259 258 258 257 257 257 257 257 258 258 258 258 258 258 259 260 261 262 262 263 265 268 270 273 277 282 286 290 295 298 305 317 328 339 345 354 0 357 359 5 9 10 12 17 22 26 28 28 28 27 27 28 31 36 48 72 114 131 155 175 172 185 196 177 154 150 155 159 165 169 173 174 175 176 176 176 170 160 147 131 117 104 91 80 70 57
260 260 260 260 260 260 259 259 258 258 258 258 258 259 259 259 259 259 260 260 260 261 262 263 264 266 268 271 276 281 285 289 293 300 308 322 331 341 353 353 352 356 2 5 6 10 16 22 26 28 28 29 28 27 30 36 45 61 91 113 141 164 172 185 183 166 151 149 152 160 166 169 173 172 172 172 168 164 154 143 134 125 117 110 104 96 81 65
260 260 260 260 260 260 260 260 260 260 260 259 259 259 258 258 259 259 260 260 260 260 261 262 262 262 263 265 267 272 277 281 285 287 291 305 316 325 337 346 347 348 354 358 0 3 8 16 22 25 27 30 30 29 28 33 42 57 84 107 127 151 170 177 170 158 146 142 148 161 167 164 163 164 167 167 160 153 142 135 136 131 125 121 116 105 86 53
260 260 260 260 260 260 260 260 260 260 260 260 260 260 259 258 258 258 259 259 259 259 260 261 262 262 262 262 263 265 269 274 278 279 282 292 301 310 319 331 339 340 345 351 353 356 0 7 15 21 24 28 31 32 30 30 37 49 73 101 117 135 158 164 159 150 138 136 143 153 159 152 148 155 162 161 156 152 142 142 148 140 132 124 111 93 68 37
262 261 261 260 260 260 259 259 259 259 259 259 260 260 260 259 258 258 257 258 258 258 258 259 261 262 262 263 262 263 265 269 272 275 278 282 287 296 305 312 325 331 334 341 346 348 353 358 6 15 19 24 29 33 34 32 34 42 59 86 108 126 146 151 144 131 124 126 133 140 144 140 140 153 162 162 157 151 149 156 156 141 129 116 100 86 73 61
263 263 262 262 261 261 260 260 259 258 258 258 259 259 259 259 259 258 258 257 257 257 257 257 258 259 261 262 262 263 264 265 268 272 275 277 278 283 291 297 306 317 321 328 337 339 344 350 356 6 13 19 25 30 35 36 35 38 50 68 90 114 133 138 125 108 103 109 117 124 122 115 117 135 163 168 158 152 158 172 159 137 119 107 102 97 92 89
264 263 263 263 263 262 261 261 260 259 258 258 258 258 258 258 258 258 258 257 257 257 256 256 255 256 258 259 260 262 263 262 265 270 272 273 273 273 277 284 290 298 306 312 322 328 334 340 346 356 4 11 18 25 31 36 37 36 44 58 74 91 105 119 113 97 92 98 105 106 96 84 60 34 211 188 157 142 129 97 123 119 109 109 109 108 107 105
264 263 263 263 263 263 262 262 261 260 259 259 258 258 257 257 256 256 257 257 257 256 256 255 255 254 255 256 257 259 261 260 261 265 267 268 268 267 266 271 277 282 288 296 305 312 321 328 335 344 354 3 10 19 26 32 37 36 37 50 64 78 88 98 100 94 91 97 102 98 91 79 53 64 113 141 131 116 89 65 82 101 108 114 114 111 111 109
262 262 262 262 262 262 262 262 261 261 260 259 258 258 258 257 255 254 255 256 256 256 255 255 254 254 253 254 254 256 258 257 256 259 261 261 263 264 262 262 267 271 275 282 290 295 306 313 320 330 341 354 1 10 21 27 35 36 32 38 52 66 75 81 83 84 86 91 95 95 94 88 73 81 101 110 112 111 97 79 80 103 117 117 113 110 110 109
262 261 261 261 261 261 261 261 261 260 260 259 258 258 258 257 256 254 253 253 254 255 254 254 253 253 253 252 251 253 255 255 253 254 256 257 259 261 261 259 260 264 267 271 276 281 289 295 303 313 325 339 348 356 9 20 31 36 32 28 38 54 66 71 73 73 76 81 85 91 98 100 87 91 104 108 111 117 120 113 103 116 124 120 113 111 109 105
263 262 261 261 260 260 260 260 259 259 259 258 258 257 257 257 256 255 253 252 252 252 252 253 253 252 252 251 250 251 253 254 252 252 253 254 255 257 259 259 259 261 264 265 267 271 275 281 286 293 304 320 330 338 351 6 20 34 35 24 22 42 59 66 68 66 66 71 76 84 101 115 102 100 103 105 109 117 126 125 116 119 125 121 116 112 106 97
263 263 262 262 261 260 260 259 259 258 258 257 257 256 256 256 256 255 254 253 251 251 251 251 251 251 252 250 248 250 252 253 252 252 252 252 252 253 255 257 257 259 261 262 263 265 267 270 274 277 283 294 307 316 327 344 0 17 36 30 14 26 56 68 71 69 65 69 80 93 116 116 107 104 102 101 103 107 111 111 113 121 127 125 122 117 106 92
262 262 263 262 262 261 261 260 259 258 257 257 256 256 255 255 255 255 254 253 252 251 250 249 249 250 250 249 247 248 251 251 250 251 252 251 251 251 252 253 254 255 256 259 260 261 262 264 265 267 268 274 286 293 301 317 333 345 4 34 21 10 43 72 79 83 85 89 98 112 121 113 107 105 101 100 101 103 103 101 106 119 127 129 124 119 110 96
263 262 262 261 261 261 261 261 260 259 258 257 256 255 255 254 254 254 253 253 252 251 250 249 248 248 248 248 246 247 249 249 248 249 251 251 250 249 249 249 250 251 252 254 256 258 259 260 261 261 262 262 267 276 282 291 302 312 319 336 37 10 14 69 89 97 102 104 108 116 121 115 109 103 99 102 105 106 106 103 103 112 122 127 121 113 107 100
266 264 263 262 261 260 260 260 260 259 259 258 257 256 255 254 254 253 253 252 251 251 250 249 248 247 247 246 245 246 247 247 246 246 248 250 250 249 248 246 247 247 249 250 252 254 256 258 257 256 257 256 258 267 270 271 279 286 293 295 300 45 354 44 96 111 116 118 125 135 137 130 118 104 101 105 110 111 110 108 107 110 115 119 118 112 106 101
268 267 266 264 263 262 261 260 259 259 258 258 257 257 256 255 254 254 253 252 251 250 250 249 248 247 246 245 244 245 246 246 244 243 245 247 247 247 247 245 245 244 245 247 249 251 254 254 254 253 254 254 254 259 262 261 265 270 272 278 279 242 211 102 119 137 140 143 152 161 161 144 125 111 105 106 110 113 110 108 110 110 110 111 115 115 112 106
271 269 268 267 265 264 262 261 260 259 258 258 257 256 255 255 255 254 254 253 251 249 249 249 248 247 247 245 243 243 245 245 243 241 242 243 245 246 246 245 244 243 243 244 246 248 250 251 252 252 251 252 251 252 256 257 257 261 262 263 270 263 232 205 190 195 188 178 179 181 176 161 144 129 119 117 117 117 115 115 115 113 111 108 109 111 111 109
277 274 271 269 267 265 264 262 261 260 260 259 258 256 255 254 254 254 253 254 253 250 248 248 247 247 247 245 243 242 243 244 243 241 241 241 242 243 245 245 244 244 243 244 244 244 247 249 249 249 249 249 249 249 253 255 254 255 257 254 254 258 253 232 211 208 211 210 204 201 197 192 186 178 173 163 150 140 132 128 125 120 117 114 111 108 105 105
288 284 279 275 271 267 265 263 262 261 260 259 258 257 256 255 253 253 252 252 254 252 248 247 248 248 247 245 243 241 242 244 243 241 240 240 239 240 242 243 242 243 244 244 243 242 245 248 247 247 247 247 248 250 250 252 252 251 252 251 246 247 251 248 236 220 213 213 217 220 218 214 212 206 195 184 173 165 157 149 139 131 129 129 126 121 112 107
297 293 289 284 279 274 268 265 263 261 260 259 259 258 257 256 254 253 251 251 252 252 249 246 247 247 247 245 243 241 241 242 242 240 240 240 239 238 239 240 240 242 243 243 243 242 244 247 246 243 245 245 245 247 247 248 250 249 248 246 242 238 241 247 247 239 230 220 218 222 228 229 227 220 206 194 189 188 186 176 162 160 166 161 146 142 158 192
300 298 295 292 288 283 276 271 267 263 261 259 258 258 257 257 256 254 252 251 251 252 250 246 245 246 247 246 243 241 241 242 242 240 240 240 239 238 238 239 239 240 242 243 243 243 245 248 247 241 242 242 241 244 245 246 246 247 246 243 241 235 234 241 244 245 245 239 230 227 228 234 235 232 225 217 213 213 217 214 202 207 220 229 217 191 196 212
301 299 297 295 293 290 285 279 274 269 263 260 258 258 256 256 255 255 253 251 251 252 250 247 244 244 245 246 244 241 241 242 242 240 239 239 239 238 237 237 238 238 240 242 243 243 245 248 247 241 240 240 240 241 243 243 243 245 245 242 241 236 231 236 242 244 244 244 244 240 232 231 232 233 234 232 228 227 230 231 220 213 217 221 224 224 229 236
302 300 298 296 294 292 289 285 281 277 271 264 259 257 256 255 254 254 253 252 251 252 251 248 245 243 242 244 244 242 240 241 242 241 239 239 239 238 237 237 237 237 237 239 241 242 243 246 245 241 238 238 237 237 239 241 242 246 247 244 242 240 235 234 240 244 241 239 246 246 240 237 235 235 237 236 236 235 232 234 229 222 224 225 228 241 256 266
302 299 297 296 294 293 291 289 286 282 278 272 264 258 256 255 253 252 253 252 252 251 251 249 246 243 241 241 242 242 241 241 242 241 240 239 239 238 237 236 236 235 235 236 240 241 242 245 245 242 240 238 237 238 239 240 243 246 249 247 243 241 239 235 237 242 242 239 243 246 245 243 242 241 241 239 239 241 239 236 237 238 241 245 247 256 268 271
302 299 297 295 294 293 291 290 288 284 281 278 273 264 257 254 253 251 251 251 251 250 250 250 248 245 242 241 240 240 241 241 241 242 240 239 239 238 237 236 236 235 234 235 238 242 243 245 246 245 243 239 239 242 241 241 245 248 250 251 248 244 243 240 239 242 243 243 244 245 246 246 244 242 245 246 243 245 248 244 243 246 250 254 256 260 266 267
301 299 296 295 294 292 291 290 289 286 282 279 277 273 264 257 253 251 251 251 251 250 250 250 248 246 244 242 240 239 239 240 241 241 240 239 239 239 238 237 236 236 235 235 238 241 244 246 247 245 244 241 240 243 243 242 246 249 249 250 250 247 245 244 244 244 245 247 245 243 245 248 244 242 246 252 246 243 250 253 253 255 255 256 257 257 261 266
300 298 296 294 293 292 291 289 287 286 284 281 278 276 272 263 256 254 254 254 252 250 249 249 248 247 245 243 241 238 237 238 239 239 239 239 238 238 238 237 236 235 234 234 236 239 242 245 246 245 243 243 241 243 243 243 245 247 247 247 248 246 245 243 244 244 244 248 248 243 242 247 247 244 246 251 249 248 254 257 256 256 256 256 258 259 262 267
297 297 295 293 292 291 290 288 286 285 284 282 279 277 274 270 265 261 259 258 255 250 249 249 248 248 246 244 242 240 237 236 237 238 238 238 238 238 238 237 237 235 234 233 234 236 238 241 244 244 243 243 242 243 244 243 243 244 243 243 243 242 241 239 239 238 238 245 249 245 241 247 249 247 246 249 252 254 254 253 251 254 257 258 259 260 263 268
294 295 294 292 291 290 289 287 286 284 282 281 280 278 276 274 271 266 262 260 255 249 249 249 248 247 246 244 243 241 239 236 235 236 236 237 237 237 237 237 237 236 235 234 233 235 236 238 241 243 243 242 241 241 241 240 239 239 239 238 239 238 237 237 235 235 235 241 249 250 247 251 253 251 250 250 251 250 251 252 253 256 259 261 260 260 263 268
290 292 292 291 290 288 287 286 285 282 281 280 279 279 278 275 270 267 264 262 256 250 249 248 247 246 245 244 243 242 241 238 236 235 235 235 236 236 236 236 236 236 235 234 233 234 235 237 240 241 241 240 239 237 237 238 238 239 240 240 241 240 238 237 235 235 236 240 248 252 250 253 255 254 253 252 249 250 252 254 255 258 261 262 262 262 263 266
287 288 289 289 289 287 286 285 283 282 280 278 278 279 277 272 268 266 265 264 259 252 249 247 246 245 244 244 243 242 242 240 237 235 234 234 234 235 236 236 236 235 235 234 233 233 234 235 238 240 240 240 239 238 237 237 237 238 240 240 240 239 238 237 235 235 236 238 243 247 248 252 255 254 253 254 252 251 252 253 255 259 262 263 264 264 264 265
286 286 286 287 287 286 285 283 282 280 279 277 277 276 272 269 268 266 264 264 261 255 251 248 245 244 243 242 242 241 241 241 239 236 234 233 233 233 234 235 235 235 235 234 233 232 232 233 235 237 238 239 239 239 237 238 238 239 239 238 237 237 238 237 235 235 237 237 238 241 244 249 254 254 253 254 254 253 252 254 257 260 262 264 264 265 266 266
286 285 284 284 284 284 283 282 280 279 277 276 276 273 269 267 266 263 263 263 262 257 254 250 246 243 242 241 241 240 241 241 240 238 235 233 233 233 233 233 234 234 234 234 233 232 232 232 234 236 237 237 239 239 237 237 239 241 241 240 240 241 241 240 238 236 238 237 236 237 240 244 250 254 254 253 254 255 255 256 258 259 262 264 265 266 267 267
285 284 283 282 282 281 281 280 278 277 276 276 274 271 267 264 262 262 263 263 262 261 258 254 249 244 241 240 240 240 240 240 240 239 237 234 232 232 232 232 233 233 233 233 233 232 231 231 233 235 236 237 238 240 239 238 240 242 242 242 244 244 243 243 242 238 238 239 237 237 239 242 246 251 255 255 255 256 258 259 260 260 261 263 265 267 268 268
283 283 282 280 280 279 278 277 276 275 274 274 272 269 266 263 261 261 262 262 261 261 259 257 253 247 241 238 239 239 238 239 240 240 238 235 233 232 232 232 231 232 232 232 232 232 231 231 231 233 235 237 238 240 241 241 240 241 242 242 243 244 243 242 242 240 239 239 239 238 239 240 242 247 253 256 256 256 257 259 260 261 262 264 266 267 268 270
281 281 280 279 278 277 276 275 274 272 271 271 270 268 265 262 260 260 260 260 260 259 258 257 255 251 244 239 237 237 237 237 238 239 238 236 234 233 232 232 231 231 232 232 232 232 232 231 231 232 234 235 237 239 240 240 240 239 240 241 241 241 241 239 240 240 238 237 238 238 238 238 240 244 248 253 256 257 256 257 258 260 263 265 267 268 270 271
279 279 278 277 276 275 274 273 271 270 269 268 267 266 264 262 259 258 258 258 258 258 257 256 255 253 248 242 237 235 234 235 237 238 238 237 235 234 233 232 231 231 231 231 232 232 232 231 230 231 233 234 235 236 237 238 239 238 239 240 240 242 242 242 242 241 240 239 238 239 238 238 240 243 246 250 255 256 256 256 257 258 261 264 266 268 269 271
277 276 275 274 274 273 272 271 269 268 267 265 264 264 262 261 258 257 256 256 256 256 255 255 254 253 251 246 239 234 233 233 234 237 238 237 237 235 234 233 232 231 231 230 231 231 231 231 231 231 232 232 233 234 234 236 238 238 239 240 243 245 247 247 245 242 242 242 241 240 240 239 240 243 245 248 252 255 256 255 256 257 258 260 262 265 267 269
274 273 273 272 271 271 270 269 267 266 265 263 262 261 260 258 257 255 254 253 253 253 253 253 252 251 251 249 243 236 232 231 232 234 236 237 237 236 235 234 233 232 231 230 230 230 230 230 230 230 230 231 232 234 235 237 239 240 240 241 243 245 247 247 246 245 245 246 245 245 244 241 240 242 244 247 250 252 254 254 255 256 256 257 259 262 265 267
271 270 270 269 269 268 268 267 265 264 263 261 260 259 257 256 254 253 252 251 251 251 251 251 250 250 250 250 247 240 233 230 230 232 233 235 235 236 236 235 234 233 231 230 230 230 230 230 229 229 230 231 233 235 237 238 239 240 241 241 242 242 244 245 246 245 245 246 247 247 245 240 239 241 242 244 247 250 252 254 254 255 256 257 258 261 264 266
268 268 267 267 266 266 265 264 263 262 261 259 257 256 255 254 252 251 250 249 249 249 248 248 248 248 248 249 248 245 238 232 230 230 231 233 234 235 235 235 234 234 232 230 230 230 230 230 229 229 230 230 231 233 234 235 236 236 237 238 239 239 240 242 244 244 244 244 245 245 242 238 237 240 241 242 245 248 251 252 253 254 255 257 259 261 264 266
267 266 265 264 263 263 263 262 261 259 258 257 255 253 252 251 249 248 248 248 247 247 246 246 246 246 247 247 247 246 241 234 231 231 230 231 233 234 234 234 234 234 233 231 230 230 230 229 229 229 229 229 230 231 231 233 234 234 234 235 236 236 237 238 240 240 240 240 241 241 240 239 238 240 241 243 245 247 250 252 253 255 256 259 261 263 265 267
265 264 263 262 261 260 259 259 258 257 256 254 253 251 249 248 247 246 246 246 245 245 244 244 244 243 243 244 245 245 243 238 233 232 232 231 232 234 234 234 234 234 234 232 231 230 230 229 229 229 228 228 228 229 230 231 232 233 233 234 235 235 236 237 238 238 237 238 237 237 238 239 239 240 242 244 246 247 250 252 254 256 258 260 262 264 265 267
262 261 260 260 259 257 256 255 255 254 253 252 250 248 247 245 244 243 243 243 242 242 242 241 241 241 241 242 243 244 244 241 236 235 235 232 230 232 233 233 233 234 233 233 232 230 229 229 229 228 228 227 228 229 230 230 231 232 233 234 235 236 236 237 237 237 237 237 236 235 237 239 240 242 243 245 247 248 250 252 255 256 258 259 261 262 264 265
261 260 259 258 257 256 254 252 251 251 250 249 247 246 244 243 242 241 241 241 240 240 239 238 238 238 239 239 240 241 242 241 238 236 236 233 230 231 233 233 233 233 233 233 232 231 230 229 228 228 228 227 228 229 230 231 231 231 231 232 234 236 237 237 238 238 239 239 239 238 239 241 243 244 245 246 248 249 251 253 254 256 257 259 260 261 263 264
261 259 258 257 256 255 253 251 249 248 247 246 244 242 241 240 239 238 238 238 238 237 237 237 237 236 236 237 237 238 239 241 240 238 236 235 233 231 231 233 234 233 233 233 232 232 231 229 228 228 227 227 228 229 230 231 232 231 231 232 233 236 237 238 239 239 240 240 240 240 241 242 243 245 246 247 249 250 252 253 255 256 258 259 260 261 262 263
259 258 257 255 254 253 252 250 248 245 244 244 242 239 238 238 236 236 236 235 236 236 235 235 235 234 234 234 235 235 237 239 240 239 237 235 234 233 231 232 233 234 233 233 232 233 232 231 229 228 227 227 228 230 230 231 233 233 233 233 234 236 237 238 238 239 240 240 240 241 241 240 242 244 246 249 251 252 253 255 256 257 259 259 260 262 263 264
Height
10993 10994 10994 10994 10995 10995 10995 10995 10996 10996 10996 10996 10996 10996 10997 10997 10997 10997 10997 10997 10996 10996 10996 10995 10995 10994 10994 10994 10994 10993 10993 10992 10991 10991 10990 10989 10988 10987 10986 10985 10984 10982 10980 10979 10977 10975 10973 10971 10970 10968 10966 10964 10962 10960 10959 10960 10961 10963 10963 10965 10966 10966 10967 10968 10970 10971 10972 10973 10974 10975 10976 10976 10977 10977 10978 10978 10979 10979 10980 10980 10981 10981 10982 10982 10983 10983 10984 10984
10991 10991 10992 10992 10992 10993 10993 10993 10994 10994 10994 10994 10994 10995 10995 10996 10996 10996 10996 10996 10996 10995 10995 10995 10995 10994 10994 10993 10993 10993 10993 10993 10992 10991 10990 10990 10989 10988 10987 10986 10985 10984 10982 10980 10978 10977 10975 10973 10971 10969 10967 10965 10962 10960 10959 10958 10959 10961 10962 10964 10965 10966 10967 10968 10969 10971 10972 10972 10973 10974 10975 10975 10976 10976 10977 10977 10977 10978 10979 10979 10980 10980 10981 10981 10982 10982 10982 10982
10988 10989 10989 10990 10990 10991 10991 10991 10991 10992 10992 10993 10993 10993 10993 10994 10994 10995 10995 10995 10995 10994 10994 10994 10994 10994 10993 10993 10993 10993 10993 10993 10992 10991 10991 10990 10990 10989 10988 10987 10986 10985 10983 10981 10980 10978 10977 10975 10973 10971 10969 10966 10964 10961 10959 10958 10958 10959 10961 10963 10965 10965 10966 10967 10968 10970 10971 10971 10972 10973 10974 10974 10975 10976 10976 10976 10977 10977 10978 10979 10979 10980 10980 10981 10981 10981 10981 10981
10985 10986 10986 10987 10988 10988 10988 10989 10989 10989 10990 10990 10991 10991 10992 10992 10992 10993 10993 10994 10993 10993 10993 10993 10993 10993 10992 10992 10992 10992 10992 10992 10992 10992 10991 10990 10990 10989 10988 10987 10987 10986 10984 10983 10981 10980 10978 10976 10975 10972 10970 10968 10965 10962 10960 10958 10958 10958 10960 10963 10965 10965 10966 10967 10968 10969 10970 10971 10972 10973 10973 10974 10975 10975 10976 10976 10976 10977 10978 10978 10978 10979 10980 10980 10980 10980 10981 10981
10982 10982 10983 10984 10985 10985 10986 10986 10986 10987 10987 10988 10989 10989 10989 10990 10990 10991 10991 10992 10992 10992 10991 10991 10991 10991 10991 10991 10990 10991 10991 10991 10992 10992 10991 10991 10990 10990 10989 10987 10987 10986 10985 10984 10982 10981 10979 10978 10976 10974 10972 10969 10967 10964 10961 10959 10959 10959 10960 10963 10964 10965 10966 10967 10968 10968 10969 10970 10971 10972 10973 10974 10975 10975 10975 10976 10976 10977 10977 10978 10978 10978 10979 10979 10980 10980 10980 10980
10978 10979 10980 10980 10981 10982 10982 10983 10983 10984 10985 10985 10986 10986 10986 10987 10988 10988 10989 10989 10990 10990 10990 10989 10990 10990 10989 10989 10989 10989 10989 10990 10991 10991 10991 10991 10990 10990 10989 10988 10987 10986 10986 10984 10983 10982 10981 10979 10977 10976 10974 10971 10969 10967 10964 10962 10961 10961 10961 10963 10965 10965 10966 10967 10968 10968 10968 10969 10971 10972 10973 10974 10974 10975 10975 10976 10976 10977 10977 10977 10978 10978 10978 10979 10979 10980 10980 10980
10975 10975 10976 10977 10977 10978 10979 10979 10980 10981 10982 10983 10983 10983 10983 10984 10985 10985 10986 10986 10987 10988 10987 10987 10987 10987 10987 10988 10987 10987 10988 10988 10989 10990 10991 10990 10990 10989 10989 10988 10987 10986 10986 10985 10983 10982 10981 10980 10979 10977 10976 10973 10971 10969 10967 10965 10963 10963 10962 10963 10965 10966 10967 10968 10968 10968 10968 10969 10971 10972 10973 10974 10974 10975 10975 10976 10976 10976 10976 10977 10977 10977 10978 10978 10979 10979 10980 10980
10971 10971 10972 10973 10974 10974 10975 10976 10977 10977 10978 10979 10980 10980 10980 10981 10982 10982 10983 10983 10984 10985 10985 10985 10985 10985 10985 10985 10985 10986 10986 10986 10988 10989 10990 10990 10990 10989 10989 10988 10988 10987 10986 10985 10984 10983 10982 10981 10980 10978 10977 10976 10974 10971 10969 10968 10966 10965 10964 10964 10965 10967 10968 10968 10968 10968 10968 10969 10971 10972 10973 10974 10974 10975 10975 10976 10976 10976 10976 10977 10977 10977 10977 10978 10978 10979 10979 10979
10966 10967 10968 10968 10969 10970 10971 10972 10973 10974 10975 10976 10976 10976 10976 10977 10978 10979 10979 10980 10980 10982 10983 10983 10983 10983 10983 10983 10983 10984 10985 10985 10986 10987 10989 10990 10989 10989 10988 10988 10988 10987 10986 10985 10984 10983 10982 10981 10980 10979 10979 10978 10976 10974 10972 10970 10968 10967 10966 10965 10966 10968 10969 10969 10969 10969 10968 10969 10971 10973 10974 10974 10974 10975 10975 10975 10976 10976 10976 10977 10977 10977 10977 10977 10978 10978 10978 10979
10961 10962 10963 10963 10964 10966 10967 10967 10969 10970 10971 10972 10972 10972 10972 10974 10975 10975 10975 10976 10977 10978 10980 10980 10981 10980 10980 10981 10981 10983 10983 10983 10984 10985 10987 10989 10989 10989 10988 10987 10988 10987 10986 10985 10984 10983 10982 10981 10981 10980 10979 10979 10978 10976 10975 10973 10971 10969 10968 10967 10968 10969 10970 10971 10971 10970 10969 10969 10971 10973 10974 10975 10975 10975 10975 10975 10976 10976 10977 10977 10978 10978 10978 10977 10977 10978 10978 10978
10955 10956 10957 10958 10959 10960 10961 10962 10964 10965 10967 10968 10968 10967 10968 10970 10971 10971 10972 10972 10973 10975 10976 10977 10978 10977 10978 10977 10978 10982 10981 10980 10982 10983 10986 10987 10988 10988 10987 10987 10987 10986 10986 10985 10985 10983 10982 10982 10981 10981 10980 10979 10979 10978 10976 10975 10973 10972 10970 10968 10969 10970 10971 10972 10972 10971 10970 10970 10971 10973 10974 10975 10976 10976 10976 10976 10976 10976 10977 10978 10978 10978 10978 10978 10977 10978 10978 10979
10948 10949 10950 10951 10952 10954 10955 10956 10958 10960 10962 10963 10963 10963 10963 10965 10966 10968 10968 10969 10970 10971 10972 10973 10974 10974 10975 10974 10976 10980 10978 10977 10980 10982 10984 10985 10986 10987 10986 10986 10986 10986 10985 10985 10984 10983 10983 10982 10981 10981 10980 10980 10979 10978 10977 10976 10975 10974 10973 10971 10971 10971 10972 10973 10972 10971 10971 10971 10972 10974 10975 10976 10977 10976 10976 10976 10976 10977 10978 10979 10979 10978 10978 10978 10978 10979 10979 10979
10941 10942 10943 10944 10945 10947 10948 10950 10951 10954 10956 10958 10958 10958 10958 10960 10962 10963 10964 10964 10966 10967 10968 10969 10970 10971 10971 10971 10975 10976 10973 10974 10978 10980 10982 10983 10983 10984 10985 10985 10984 10984 10984 10984 10984 10983 10982 10982 10981 10981 10981 10980 10979 10978 10978 10977 10976 10975 10975 10974 10973 10973 10973 10973 10972 10970 10971 10972 10974 10974 10975 10976 10977 10977 10977 10977 10977 10977 10978 10979 10979 10979 10979 10979 10979 10979 10980 10980
10934 10934 10935 10937 10938 10939 10941 10942 10944 10947 10950 10951 10952 10952 10952 10954 10957 10958 10959 10960 10961 10963 10964 10965 10966 10967 10966 10968 10972 10971 10968 10971 10976 10977 10978 10979 10980 10981 10982 10983 10983 10983 10983 10983 10983 10982 10982 10981 10981 10981 10981 10981 10980 10979 10979 10978 10977 10976 10976 10976 10976 10975 10974 10973 10971 10970 10971 10973 10974 10975 10976 10977 10978 10978 10977 10977 10977 10977 10978 10979 10980 10980 10979 10979 10980 10981 10981 10981
10926 10927 10928 10929 10930 10931 10933 10934 10936 10939 10942 10944 10945 10945 10945 10947 10950 10952 10954 10955 10956 10958 10960 10960 10961 10962 10962 10966 10969 10966 10964 10968 10972 10973 10973 10975 10977 10978 10979 10981 10982 10981 10982 10982 10981 10981 10981 10981 10981 10981 10980 10981 10980 10980 10980 10979 10978 10977 10977 10977 10977 10976 10975 10972 10970 10970 10971 10973 10975 10975 10976 10978 10978 10978 10978 10977 10977 10977 10978 10978 10979 10980 10980 10980 10981 10982 10982 10983
10917 10918 10919 10921 10922 10923 10925 10926 10928 10931 10934 10936 10937 10938 10938 10940 10943 10945 10947 10950 10951 10952 10954 10955 10956 10957 10958 10962 10965 10962 10961 10965 10968 10969 10970 10972 10973 10974 10976 10979 10980 10980 10980 10980 10980 10980 10980 10980 10980 10980 10980 10981 10981 10980 10980 10980 10979 10978 10978 10978 10978 10977 10975 10972 10970 10970 10972 10973 10975 10976 10977 10978 10978 10978 10978 10978 10977 10977 10978 10978 10979 10980 10980 10980 10981 10982 10983 10984
10909 10909 10910 10912 10913 10915 10916 10918 10919 10922 10926 10928 10929 10930 10931 10932 10935 10937 10940 10943 10945 10946 10948 10950 10951 10951 10953 10958 10960 10958 10958 10962 10965 10965 10966 10968 10969 10971 10973 10975 10977 10978 10978 10978 10978 10978 10979 10979 10979 10979 10979 10980 10980 10980 10980 10980 10980 10979 10979 10978 10979 10978 10975 10973 10971 10971 10973 10974 10975 10977 10979 10979 10979 10979 10978 10978 10978 10978 10979 10979 10979 10980 10981 10981 10981 10982 10983 10984
10901 10901 10901 10902 10904 10906 10907 10909 10910 10913 10916 10919 10920 10922 10923 10924 10926 10929 10932 10934 10937 10940 10942 10944 10945 10946 10947 10952 10955 10955 10955 10958 10960 10961 10962 10964 10966 10967 10969 10972 10974 10975 10976 10976 10976 10977 10977 10977 10977 10977 10978 10979 10979 10980 10980 10980 10980 10980 10979 10979 10979 10978 10976 10974 10972 10973 10975 10976 10977 10978 10979 10980 10980 10980 10979 10979 10979 10980 10980 10981 10980 10980 10981 10982 10982 10983 10983 10984
10893 10893 10892 10893 10895 10897 10898 10899 10901 10903 10906 10910 10911 10913 10915 10916 10917 10920 10923 10926 10929 10932 10935 10937 10939 10940 10941 10946 10950 10951 10950 10953 10956 10957 10958 10960 10962 10963 10966 10968 10969 10971 10973 10973 10973 10974 10975 10975 10975 10975 10976 10977 10978 10978 10979 10979 10979 10979 10980 10979 10978 10978 10977 10975 10973 10974 10976 10977 10978 10979 10980 10981 10980 10980 10979 10979 10980 10980 10981 10981 10982 10982 10982 10983 10983 10984 10984 10984
10884 10884 10884 10884 10886 10888 10889 10889 10891 10894 10896 10899 10902 10903 10905 10907 10909 10911 10913 10916 10920 10924 10927 10930 10932 10932 10934 10939 10945 10946 10945 10947 10951 10953 10954 10955 10957 10959 10961 10964 10965 10967 10969 10968 10969 10971 10973 10973 10972 10973 10974 10975 10977 10977 10977 10978 10978 10978 10979 10979 10978 10978 10977 10976 10975 10975 10976 10977 10978 10980 10981 10981 10981 10980 10980 10980 10980 10981 10981 10982 10982 10982 10983 10983 10984 10984 10984 10985
10877 10876 10875 10875 10877 10879 10880 10880 10882 10884 10886 10888 10891 10894 10895 10897 10899 10901 10904 10906 10910 10916 10918 10922 10924 10923 10927 10934 10938 10940 10939 10941 10944 10947 10948 10950 10953 10955 10957 10959 10961 10963 10964 10964 10966 10968 10970 10968 10967 10970 10973 10974 10975 10975 10975 10976 10977 10977 10978 10978 10978 10978 10978 10977 10977 10977 10977 10977 10978 10980 10980 10980 10980 10980 10980 10981 10981 10981 10982 10982 10982 10983 10983 10983 10984 10984 10984 10985
10870 10868 10867 10867 10868 10870 10872 10871 10873 10875 10876 10878 10880 10883 10885 10887 10890 10892 10895 10894 10899 10907 10910 10914 10915 10913 10919 10928 10932 10934 10933 10933 10937 10941 10943 10945 10948 10950 10952 10955 10956 10958 10959 10960 10963 10965 10965 10963 10963 10968 10971 10972 10973 10972 10972 10974 10975 10975 10976 10977 10977 10977 10977 10977 10977 10977 10978 10978 10978 10979 10980 10980 10980 10980 10980 10981 10981 10982 10982 10982 10983 10983 10983 10983 10984 10984 10984 10984
10863 10862 10860 10860 10860 10862 10864 10863 10864 10866 10867 10868 10869 10872 10874 10877 10880 10883 10886 10883 10884 10896 10903 10904 10905 10905 10911 10919 10924 10927 10924 10924 10930 10935 10938 10939 10942 10945 10947 10950 10952 10953 10955 10957 10959 10961 10960 10957 10959 10965 10968 10970 10970 10970 10970 10970 10972 10973 10973 10975 10975 10975 10976 10977 10977 10978 10978 10978 10978 10979 10979 10979 10979 10980 10980 10980 10981 10981 10982 10982 10982 10983 10983 10983 10983 10984 10984 10984
10856 10854 10853 10853 10852 10854 10856 10855 10857 10858 10858 10859 10860 10862 10863 10866 10871 10873 10876 10873 10870 10882 10895 10895 10895 10897 10902 10909 10915 10918 10917 10917 10922 10928 10930 10933 10936 10940 10941 10944 10946 10948 10951 10953 10954 10956 10954 10951 10956 10963 10965 10967 10967 10968 10968 10967 10968 10970 10971 10972 10973 10974 10975 10975 10976 10977 10978 10978 10978 10978 10978 10979 10979 10979 10979 10979 10980 10980 10981 10981 10982 10982 10982 10983 10983 10983 10984 10984
10848 10847 10846 10845 10845 10846 10849 10848 10849 10851 10850 10850 10851 10852 10854 10856 10860 10863 10865 10865 10858 10865 10881 10887 10887 10887 10891 10899 10907 10910 10910 10909 10912 10918 10923 10926 10930 10934 10935 10938 10942 10944 10946 10947 10949 10951 10949 10946 10953 10960 10961 10963 10964 10964 10964 10964 10965 10967 10968 10969 10971 10973 10974 10973 10974 10975 10976 10977 10977 10977 10978 10978 10978 10978 10978 10978 10979 10979 10980 10980 10980 10981 10981 10982 10982 10983 10983 10983
10841 10839 10837 10837 10837 10838 10841 10841 10842 10843 10843 10842 10842 10843 10845 10846 10850 10853 10854 10856 10850 10850 10864 10876 10878 10878 10880 10888 10896 10901 10902 10899 10901 10911 10918 10919 10922 10926 10929 10932 10936 10938 10940 10942 10944 10947 10944 10942 10949 10956 10957 10959 10960 10961 10961 10961 10961 10962 10963 10966 10968 10971 10972 10972 10972 10973 10974 10976 10976 10976 10976 10977 10977 10977 10976 10976 10977 10978 10978 10979 10979 10980 10980 10981 10981 10982 10982 10983
10834 10832 10830 10829 10829 10829 10831 10833 10835 10836 10835 10835 10834 10834 10836 10838 10841 10842 10843 10847 10843 10838 10846 10860 10867 10870 10872 10877 10883 10891 10893 10889 10893 10904 10909 10910 10913 10918 10922 10926 10929 10932 10934 10937 10940 10942 10940 10937 10944 10951 10952 10954 10956 10957 10956 10957 10957 10957 10959 10963 10965 10967 10969 10970 10970 10971 10972 10974 10973 10974 10974 10975 10975 10975 10975 10975 10975 10976 10977 10977 10978 10978 10979 10979 10980 10980 10981 10982
10826 10825 10823 10821 10821 10821 10821 10824 10827 10828 10827 10827 10827 10826 10828 10830 10832 10833 10834 10837 10834 10829 10833 10844 10854 10860 10864 10865 10870 10879 10883 10881 10884 10893 10899 10902 10906 10911 10916 10920 10922 10924 10927 10931 10934 10935 10933 10931 10937 10945 10947 10950 10951 10950 10950 10952 10953 10952 10955 10960 10962 10964 10966 10967 10968 10969 10970 10972 10971 10971 10972 10973 10974 10974 10974 10974 10974 10975 10975 10975 10976 10977 10977 10978 10978 10979 10979 10980
10819 10818 10816 10813 10813 10813 10811 10814 10819 10819 10818 10818 10818 10819 10819 10821 10824 10824 10826 10828 10823 10819 10823 10831 10840 10849 10853 10855 10860 10866 10872 10874 10875 10882 10891 10895 10899 10902 10907 10911 10912 10916 10921 10926 10928 10928 10926 10926 10930 10938 10944 10945 10945 10943 10945 10949 10949 10948 10952 10956 10958 10961 10963 10964 10966 10966 10968 10970 10968 10968 10969 10971 10972 10972 10972 10972 10973 10973 10973 10974 10974 10974 10975 10976 10977 10977 10977 10977
10811 10811 10809 10806 10805 10805 10803 10805 10808 10809 10809 10810 10809 10810 10812 10814 10816 10817 10820 10818 10811 10809 10815 10821 10828 10836 10841 10845 10850 10855 10860 10865 10867 10873 10881 10887 10890 10892 10897 10901 10904 10909 10916 10920 10922 10922 10921 10921 10925 10934 10939 10940 10940 10939 10942 10944 10944 10946 10950 10952 10955 10957 10959 10961 10962 10963 10966 10967 10965 10965 10967 10969 10970 10969 10969 10970 10971 10971 10971 10972 10972 10972 10973 10974 10975 10975 10975 10975
10803 10803 10802 10799 10797 10796 10795 10796 10798 10798 10799 10801 10801 10801 10804 10807 10809 10811 10813 10806 10799 10801 10807 10812 10818 10825 10830 10834 10839 10845 10849 10854 10858 10863 10870 10877 10880 10883 10888 10893 10898 10903 10909 10914 10916 10916 10916 10917 10920 10928 10932 10933 10935 10935 10937 10939 10940 10943 10947 10949 10951 10953 10955 10957 10958 10960 10963 10961 10959 10962 10965 10966 10966 10966 10966 10968 10970 10969 10968 10969 10970 10970 10970 10971 10972 10973 10973 10972
10795 10794 10794 10793 10790 10787 10787 10787 10788 10788 10790 10791 10793 10794 10796 10799 10803 10806 10803 10793 10790 10795 10799 10803 10809 10815 10820 10824 10828 10834 10839 10843 10847 10852 10859 10865 10870 10874 10878 10883 10889 10894 10901 10906 10908 10908 10910 10911 10913 10919 10924 10927 10930 10931 10932 10935 10936 10938 10942 10945 10946 10949 10952 10954 10955 10957 10958 10954 10952 10958 10963 10961 10960 10963 10965 10965 10966 10967 10966 10967 10967 10967 10968 10969 10970 10971 10970 10970
10786 10786 10785 10785 10783 10779 10778 10778 10777 10779 10780 10780 10783 10786 10787 10793 10797 10796 10790 10783 10783 10788 10790 10796 10802 10805 10809 10813 10816 10821 10826 10831 10835 10840 10847 10854 10860 10864 10868 10873 10879 10885 10892 10896 10897 10899 10902 10903 10905 10911 10916 10920 10924 10926 10928 10931 10931 10932 10936 10939 10941 10944 10947 10949 10951 10952 10952 10948 10946 10953 10959 10957 10956 10960 10963 10963 10964 10965 10964 10964 10964 10964 10965 10966 10967 10968 10968 10967
10777 10776 10775 10775 10775 10771 10768 10768 10768 10769 10770 10770 10773 10777 10781 10786 10787 10784 10779 10775 10776 10781 10784 10788 10792 10795 10798 10802 10806 10810 10813 10820 10825 10829 10836 10843 10849 10854 10858 10864 10870 10876 10882 10886 10889 10893 10895 10897 10900 10904 10908 10912 10917 10920 10921 10922 10922 10923 10927 10930 10934 10939 10942 10944 10945 10946 10946 10943 10941 10949 10955 10951 10951 10957 10959 10960 10961 10961 10961 10961 10961 10961 10962 10963 10965 10965 10965 10965
10766 10766 10765 10765 10765 10763 10758 10758 10758 10758 10760 10762 10762 10768 10774 10777 10775 10772 10769 10767 10770 10774 10776 10779 10782 10785 10788 10792 10797 10800 10803 10809 10815 10819 10826 10833 10839 10844 10848 10854 10859 10864 10871 10876 10882 10886 10888 10893 10895 10895 10898 10903 10906 10910 10912 10912 10915 10917 10920 10925 10931 10936 10937 10938 10940 10941 10942 10941 10940 10946 10949 10945 10947 10953 10954 10955 10956 10957 10958 10959 10959 10959 10960 10960 10961 10962 10963 10963
10755 10755 10755 10754 10754 10753 10750 10748 10747 10746 10750 10751 10753 10760 10765 10764 10763 10762 10760 10761 10764 10766 10767 10770 10773 10775 10779 10783 10787 10790 10793 10798 10803 10808 10815 10822 10828 10833 10837 10843 10849 10854 10860 10866 10871 10876 10880 10886 10886 10885 10889 10893 10896 10901 10903 10905 10909 10911 10914 10921 10928 10929 10928 10930 10935 10937 10938 10940 10941 10943 10943 10940 10943 10948 10949 10949 10951 10953 10954 10955 10956 10956 10956 10957 10957 10959 10960 10960
10743 10742 10743 10744 10743 10742 10740 10738 10736 10736 10738 10740 10746 10752 10753 10751 10753 10752 10751 10753 10755 10755 10757 10761 10764 10767 10770 10773 10777 10781 10783 10787 10792 10798 10804 10811 10817 10822 10827 10832 10838 10844 10850 10854 10859 10865 10871 10875 10874 10875 10881 10883 10885 10890 10895 10898 10902 10904 10910 10917 10918 10918 10920 10924 10930 10932 10935 10938 10940 10941 10940 10937 10938 10942 10944 10945 10945 10947 10950 10951 10952 10953 10952 10952 10953 10955 10956 10957
10730 10729 10730 10731 10731 10729 10728 10727 10725 10725 10726 10730 10737 10741 10741 10741 10741 10740 10741 10744 10744 10746 10749 10752 10755 10759 10761 10764 10768 10772 10775 10777 10781 10787 10794 10801 10806 10811 10815 10820 10826 10832 10837 10842 10848 10855 10861 10865 10866 10868 10871 10873 10875 10879 10886 10893 10897 10901 10907 10909 10907 10910 10916 10920 10925 10929 10931 10934 10937 10937 10937 10936 10935 10935 10937 10939 10940 10942 10945 10947 10948 10948 10947 10947 10949 10950 10951 10952
10717 10715 10715 10717 10717 10717 10716 10715 10714 10713 10715 10721 10726 10728 10729 10730 10728 10728 10731 10734 10735 10738 10741 10744 10746 10750 10753 10756 10759 10763 10767 10769 10772 10776 10783 10790 10796 10799 10803 10808 10814 10820 10824 10830 10837 10843 10850 10855 10858 10860 10862 10864 10866 10871 10882 10891 10894 10896 10899 10900 10900 10905 10912 10915 10919 10924 10927 10929 10932 10933 10934 10935 10933 10930 10930 10933 10936 10937 10940 10942 10942 10942 10942 10942 10943 10945 10946 10947
10704 10702 10701 10702 10703 10703 10703 10703 10702 10702 10704 10710 10713 10714 10717 10718 10717 10717 10720 10723 10726 10729 10732 10734 10737 10741 10745 10748 10750 10754 10759 10761 10763 10766 10772 10779 10785 10788 10790 10795 10802 10806 10811 10818 10826 10832 10838 10845 10849 10850 10851 10855 10861 10870 10880 10885 10886 10888 10890 10892 10894 10899 10906 10910 10913 10918 10922 10925 10928 10929 10932 10933 10930 10927 10925 10926 10929 10933 10935 10936 10936 10936 10936 10937 10938 10939 10940 10941
10689 10687 10685 10686 10687 10687 10687 10689 10691 10691 10693 10698 10700 10701 10703 10705 10706 10706 10708 10712 10717 10719 10722 10725 10727 10731 10736 10739 10742 10745 10749 10753 10754 10757 10761 10767 10773 10776 10778 10783 10788 10793 10799 10808 10816 10822 10829 10836 10840 10839 10841 10850 10860 10867 10871 10871 10872 10876 10880 10884 10887 10891 10896 10901 10906 10911 10916 10919 10922 10924 10927 10928 10926 10924 10923 10921 10922 10926 10929 10930 10931 10931 10931 10931 10931 10933 10934 10935
10672 10671 10670 10671 10671 10670 10672 10675 10676 10678 10682 10685 10687 10687 10690 10693 10695 10696 10697 10701 10706 10709 10712 10715 10718 10722 10725 10728 10731 10735 10739 10744 10747 10749 10752 10756 10761 10765 10767 10771 10776 10782 10790 10799 10807 10813 10818 10823 10828 10829 10836 10847 10853 10854 10856 10856 10858 10864 10870 10876 10881 10883 10888 10895 10902 10907 10909 10912 10916 10918 10921 10924 10922 10920 10920 10918 10917 10920 10923 10925 10926 10927 10927 10926 10925 10927 10928 10929
10654 10652 10652 10655 10655 10653 10656 10659 10660 10664 10669 10672 10672 10674 10677 10680 10683 10685 10686 10690 10695 10698 10701 10705 10708 10711 10714 10716 10720 10725 10730 10735 10739 10741 10744 10747 10751 10754 10756 10760 10765 10773 10780 10787 10795 10800 10804 10811 10820 10825 10831 10837 10838 10838 10841 10844 10847 10856 10866 10873 10877 10881 10886 10891 10896 10899 10901 10905 10909 10911 10916 10921 10919 10916 10915 10914 10914 10914 10918 10920 10921 10923 10924 10922 10921 10921 10923 10924
10636 10634 10633 10637 10638 10636 10639 10643 10645 10649 10654 10657 10659 10662 10664 10667 10671 10673 10674 10677 10682 10686 10691 10695 10697 10701 10703 10705 10709 10715 10720 10726 10731 10733 10735 10738 10740 10742 10745 10750 10756 10762 10768 10775 10781 10786 10791 10802 10811 10815 10819 10823 10825 10827 10834 10841 10846 10855 10864 10869 10874 10878 10879 10880 10885 10889 10894 10899 10903 10907 10914 10917 10914 10911 10910 10910 10910 10909 10911 10914 10916 10918 10918 10918 10918 10918 10918 10920
10615 10614 10615 10618 10620 10619 10621 10625 10629 10633 10638 10642 10646 10648 10650 10653 10658 10660 10660 10664 10670 10674 10680 10684 10687 10691 10693 10694 10699 10705 10711 10718 10722 10724 10727 10729 10729 10731 10734 10740 10746 10751 10756 10763 10769 10774 10782 10792 10799 10803 10809 10816 10821 10827 10835 10842 10845 10849 10855 10860 10865 10867 10868 10870 10874 10879 10887 10894 10897 10902 10910 10911 10907 10905 10905 10905 10905 10904 10905 10908 10910 10911 10912 10913 10913 10913 10914 10915
10592 10593 10595 10598 10600 10602 10604 10608 10612 10616 10621 10626 10631 10633 10636 10640 10644 10646 10648 10652 10657 10662 10669 10673 10676 10680 10682 10685 10690 10695 10702 10708 10711 10715 10719 10719 10719 10720 10724 10730 10735 10738 10744 10752 10758 10764 10772 10781 10788 10794 10803 10810 10815 10821 10826 10828 10830 10834 10841 10847 10851 10854 10857 10860 10862 10870 10882 10887 10888 10895 10901 10901 10899 10898 10898 10899 10899 10899 10899 10901 10903 10905 10906 10907 10908 10909 10910 10910
10570 10571 10572 10575 10580 10583 10585 10589 10593 10598 10604 10610 10614 10618 10622 10626 10630 10632 10636 10640 10645 10650 10657 10662 10666 10670 10673 10676 10680 10685 10691 10697 10702 10706 10709 10710 10710 10711 10714 10719 10723 10727 10733 10741 10747 10754 10762 10770 10778 10786 10795 10801 10805 10807 10809 10811 10815 10821 10827 10831 10836 10840 10845 10847 10852 10863 10873 10875 10879 10888 10890 10890 10892 10891 10891 10893 10894 10894 10894 10895 10897 10899 10901 10903 10904 10905 10906 10906
10546 10548 10549 10551 10557 10564 10566 10568 10573 10579 10586 10592 10598 10602 10606 10610 10615 10619 10623 10628 10633 10638 10645 10652 10655 10659 10662 10664 10668 10675 10681 10687 10694 10697 10699 10701 10701 10701 10704 10709 10712 10717 10724 10731 10738 10745 10752 10760 10768 10775 10783 10790 10792 10792 10794 10798 10804 10810 10816 10820 10824 10828 10833 10838 10845 10856 10861 10863 10872 10879 10878 10880 10885 10885 10885 10888 10888 10888 10889 10890 10892 10894 10896 10899 10899 10899 10900 10901
10521 10523 10524 10527 10533 10540 10545 10549 10554 10560 10567 10574 10581 10586 10590 10594 10600 10606 10611 10615 10621 10626 10633 10640 10643 10647 10651 10654 10660 10667 10672 10678 10685 10687 10688 10690 10691 10691 10695 10699 10702 10707 10714 10720 10727 10734 10741 10749 10756 10763 10772 10779 10780 10779 10782 10787 10792 10799 10806 10811 10815 10820 10826 10831 10838 10845 10849 10854 10864 10868 10869 10874 10879 10880 10881 10882 10881 10883 10884 10885 10887 10889 10891 10893 10893 10892 10894 10894
10495 10498 10500 10504 10508 10514 10521 10529 10535 10540 10547 10556 10565 10570 10574 10579 10585 10592 10598 10603 10608 10613 10620 10627 10631 10635 10641 10645 10651 10658 10662 10666 10673 10675 10676 10679 10681 10684 10687 10689 10692 10698 10703 10709 10716 10724 10731 10738 10745 10752 10761 10768 10770 10769 10771 10775 10781 10788 10796 10803 10807 10812 10818 10824 10831 10836 10841 10849 10857 10861 10865 10872 10875 10875 10876 10875 10875 10877 10878 10879 10882 10882 10884 10886 10886 10885 10886 10886
10471 10473 10476 10481 10486 10489 10497 10507 10516 10522 10528 10537 10548 10553 10557 10563 10570 10578 10584 10590 10595 10599 10606 10614 10620 10625 10630 10635 10641 10647 10651 10656 10662 10665 10667 10670 10673 10676 10678 10680 10683 10689 10694 10701 10709 10716 10721 10727 10734 10741 10750 10757 10759 10758 10761 10766 10771 10777 10787 10795 10800 10805 10811 10819 10825 10830 10836 10844 10850 10854 10862 10870 10870 10867 10867 10867 10868 10870 10872 10873 10875 10875 10877 10879 10878 10878 10879 10877
10446 10450 10454 10459 10464 10468 10473 10484 10495 10504 10510 10518 10529 10537 10542 10547 10555 10563 10571 10577 10581 10586 10594 10602 10608 10614 10620 10625 10631 10637 10642 10647 10651 10653 10657 10662 10665 10667 10669 10672 10675 10679 10685 10694 10702 10707 10710 10716 10723 10730 10740 10748 10748 10748 10754 10758 10760 10770 10784 10794 10798 10801 10806 10811 10816 10822 10829 10835 10840 10847 10857 10864 10862 10859 10860 10861 10862 10864 10866 10867 10868 10869 10871 10872 10871 10870 10871 10869